This is the latest recevied weather packets stored in our database for station/object N3DXC. If no packets are shown the sender has not sent any weather packets the latest 10 day(s).
| Time | Temp. | Humidity | Pressure | Rain* | Wind** | Luminosity | Snow |
|---|---|---|---|---|---|---|---|
| 1778200783 | 10.56° C | 50% | 1011.3 hPa | 0 mm | - | - | - |
| 1778200483 | 10.56° C | 50% | 1011.2 hPa | 0 mm | - | - | - |
| 1778200183 | 10.56° C | 51% | 1011.2 hPa | 0 mm | - | - | - |
| 1778199883 | 10.56° C | 50% | 1011 hPa | 0 mm | - | - | - |
| 1778199583 | 11.11° C | 49% | 1011 hPa | 0 mm | - | - | - |
| 1778199284 | 10.56° C | 50% | 1011 hPa | 0 mm | - | - | - |
| 1778198984 | 11.11° C | 48% | 1011 hPa | 0 mm | - | - | - |
| 1778198683 | 11.67° C | 47% | 1010.9 hPa | 0 mm | - | - | - |
| 1778198383 | 11.67° C | 46% | 1010.9 hPa | 0 mm | - | - | - |
| 1778198084 | 11.67° C | 46% | 1010.8 hPa | 0 mm | - | - | - |
| 1778197784 | 11.67° C | 45% | 1010.8 hPa | 0 mm | - | - | - |
| 1778197486 | 11.67° C | 45% | 1010.7 hPa | 0 mm | - | - | - |
| 1778197185 | 12.22° C | 46% | 1010.7 hPa | 0 mm | - | - | - |
| 1778196883 | 12.22° C | 43% | 1010.6 hPa | 0 mm | - | - | - |
| 1778196585 | 12.78° C | 43% | 1010.5 hPa | 0 mm | - | - | - |
| 1778196285 | 12.22° C | 42% | 1010.5 hPa | 0 mm | - | - | - |
| 1778195984 | 12.22° C | 43% | 1010.4 hPa | 0 mm | - | - | - |
| 1778195684 | 12.22° C | 41% | 1010.4 hPa | 0 mm | - | - | - |
| 1778195384 | 12.22° C | 41% | 1010.3 hPa | 0 mm | - | - | - |
| 1778195083 | 12.22° C | 41% | 1010.3 hPa | 0 mm | - | - | - |
| 1778194784 | 12.22° C | 43% | 1010.3 hPa | 0 mm | - | - | - |
| 1778194484 | 12.78° C | 41% | 1010.3 hPa | 0 mm | - | - | - |
| 1778194184 | 12.78° C | 41% | 1010.2 hPa | 0 mm | - | - | - |
| 1778193884 | 12.78° C | 42% | 1010.2 hPa | 0 mm | - | - | - |
| 1778193584 | 12.78° C | 42% | 1010.1 hPa | 0 mm | - | - | - |
* Rain latest hour (hover to see other rain measurements)
** Current wind speed in m/s (hover to see current wind gust speed)